This is the latest recevied weather packets stored in our database for station/object N6WDO. If no packets are shown the sender has not sent any weather packets the latest 10 day(s).
| Time | Temp. | Humidity | Pressure | Rain* | Wind** | Luminosity | Snow |
|---|---|---|---|---|---|---|---|
| 1778181780 | 25° C | 54% | 1020 hPa | 0 mm | - | 735 W/m² | - |
| 1778181476 | 23.89° C | 56% | 1020.1 hPa | 0 mm | - | 734 W/m² | - |
| 1778181173 | 24.44° C | 54% | 1019.9 hPa | 0 mm | - | 729 W/m² | - |
| 1778180870 | 25° C | 54% | 1020.2 hPa | 0 mm | - | 725 W/m² | - |
| 1778180569 | 24.44° C | 54% | 1020.2 hPa | 0 mm | - | 722 W/m² | - |
| 1778180267 | 23.89° C | 56% | 1020.2 hPa | 0 mm | - | 718 W/m² | - |
| 1778179963 | 23.89° C | 55% | 1020 hPa | 0 mm | - | 714 W/m² | - |
| 1778179661 | 24.44° C | 55% | 1020.4 hPa | 0 mm | - | 709 W/m² | - |
| 1778179359 | 25° C | 55% | 1020.3 hPa | 0 mm | - | 705 W/m² | - |
| 1778179055 | 24.44° C | 55% | 1020.3 hPa | 0 mm | - | 699 W/m² | - |
| 1778178752 | 24.44° C | 54% | 1020.3 hPa | 0 mm | - | 692 W/m² | - |
| 1778178449 | 24.44° C | 52% | 1020.5 hPa | 0 mm | - | 688 W/m² | - |
| 1778178144 | 24.44° C | 56% | 1020.4 hPa | 0 mm | - | 681 W/m² | - |
| 1778177841 | 23.89° C | 55% | 1020.3 hPa | 0 mm | - | 674 W/m² | - |
| 1778177538 | 23.89° C | 55% | 1020.7 hPa | 0 mm | - | 665 W/m² | - |
| 1778177234 | 23.89° C | 58% | 1020.5 hPa | 0 mm | - | 658 W/m² | - |
| 1778176931 | 23.33° C | 58% | 1020.4 hPa | 0 mm | - | 650 W/m² | - |
| 1778176627 | 23.89° C | 57% | 1020.5 hPa | 0 mm | - | 641 W/m² | - |
| 1778176324 | 23.89° C | 57% | 1020.4 hPa | 0 mm | - | 634 W/m² | - |
| 1778176022 | 23.33° C | 58% | 1020.4 hPa | 0 mm | - | 626 W/m² | - |
| 1778175719 | 23.33° C | 56% | 1020.5 hPa | 0 mm | - | 616 W/m² | - |
| 1778175417 | 22.78° C | 57% | 1020.7 hPa | 0 mm | - | 607 W/m² | - |
| 1778175113 | 22.78° C | 58% | 1020.4 hPa | 0 mm | - | 596 W/m² | - |
| 1778174810 | 22.78° C | 58% | 1020.5 hPa | 0 mm | - | 587 W/m² | - |
| 1778174502 | 22.78° C | 59% | 1020.5 hPa | 0 mm | - | 574 W/m² | - |
* Rain latest hour (hover to see other rain measurements)
** Current wind speed in m/s (hover to see current wind gust speed)